User: anonymous   Login
Location: Glencliff
(36.1226°N, 86.7183°W)
Time: 04:40:02
(UTC+00:00)
Language:

Cosmos 2263 Rocket - Orbit

View from above orbital plane
View from above orbital plane
View from above satellite
View from above satellite

Ground track
Ground track

The orbit data is extracted from the following two-line orbital elements,

1 22803U 93059B   19296.82727213  .00000022  00000-0  34809-4 0  9992
2 22803  70.9902 240.0307 0016525 165.5030 194.6571 14.16814374349906
Epoch (UTC): 23 October 2019 19:51:16
Eccentricity: 0.0016525
inclination: 70.9902°
perigee height: 824 km
apogee height: 848 km
right ascension of ascending node: 240.0307°
argument of perigee: 165.5030°
revolutions per day: 14.16814374
mean anomaly at epoch: 194.6571°
orbit number at epoch: 34990

The dashed part of the orbit path shows where the satellite is in the earth's shadow,  

DLR